Wind_Speed
19 21 26 33 37 44 44 48 54 62 59 60 59 56 53 50 56 56 53 47 41 44 53 49 55 54 52 52 57 56 52 55 62 65 62 66 44 48 42 40 39 37 33 38
24 29 35 36 40 46 49 55 62 64 67 63 60 58 61 61 58 48 53 52 46 51 53 54 51 52 54 57 57 58 58 60 65 64 65 52 47 43 42 42 40 39 36 41
29 33 37 41 46 55 58 58 63 62 60 62 59 56 53 54 58 54 46 44 48 48 49 51 54 58 58 59 59 60 63 64 65 64 60 50 43 43 44 42 45 38 37 44
32 35 38 43 49 56 60 60 59 59 61 62 63 52 49 46 44 48 53 46 48 51 52 54 55 56 58 60 63 63 63 62 65 66 58 44 43 47 45 44 43 41 39 47
36 39 45 48 52 57 61 63 61 60 58 61 60 62 57 54 51 48 51 46 54 56 57 59 61 61 62 64 63 63 64 64 66 52 48 46 46 50 46 44 44 36 37 53
36 42 46 48 51 53 57 62 63 62 58 56 59 61 62 61 60 59 52 48 54 59 56 56 59 62 60 58 62 63 68 56 53 53 49 49 50 54 50 48 42 39 34 48
27 37 44 44 48 50 53 53 55 58 57 59 60 61 63 62 60 58 59 56 55 58 59 62 62 62 62 63 60 56 55 56 54 53 49 51 54 59 53 53 49 45 43 44
26 26 37 44 48 50 49 49 50 52 54 55 56 55 56 61 59 57 57 54 52 52 55 55 53 53 51 51 54 56 56 50 52 52 49 54 55 60 56 57 56 52 49 46
30 29 31 32 41 48 49 51 52 52 53 54 53 52 51 54 54 53 55 54 51 51 47 51 52 53 55 56 59 58 52 50 48 42 47 53 57 60 63 62 61 60 56 54
31 32 32 30 29 29 38 47 51 49 52 53 52 52 52 52 51 53 54 55 52 52 53 56 58 56 55 57 56 50 49 53 56 48 41 44 63 63 64 66 64 64 64 62
33 33 33 32 33 36 37 40 47 55 61 57 54 54 55 56 56 54 53 54 55 57 56 53 53 56 55 53 48 48 50 53 54 56 57 55 64 73 70 69 69 70 70 69
37 36 36 37 39 40 44 48 52 53 49 50 54 58 57 57 57 56 55 54 56 55 52 53 56 55 52 51 49 47 50 52 58 58 64 66 66 71 74 75 76 75 75 75
31 34 34 33 35 39 41 47 46 42 42 45 47 52 55 58 59 58 57 57 54 54 54 53 54 54 54 53 53 50 52 56 66 68 66 70 73 76 78 76 81 81 81 80
33 35 35 38 38 37 38 39 38 38 39 42 44 46 48 51 54 56 57 57 56 55 56 57 56 58 58 59 58 56 60 65 75 78 79 76 79 81 81 81 80 81 82 85
32 33 35 36 31 31 32 34 33 34 37 39 41 43 45 47 49 53 58 59 61 61 61 61 61 64 63 65 65 66 68 77 78 82 82 82 84 85 90 89 91 91 87 90
20 20 23 24 27 27 29 28 29 29 30 33 36 38 41 45 47 48 50 53 55 58 62 64 66 67 70 71 71 73 74 84 88 89 90 91 91 92 94 95 95 100 97 95
26 27 28 25 23 23 23 22 22 24 27 29 31 34 37 40 43 46 48 49 51 53 56 59 64 68 73 75 77 76 81 84 92 94 97 100 100 102 103 104 104 103 105 108
24 24 21 18 17 17 19 21 21 21 23 25 27 29 32 35 39 43 47 50 53 55 58 60 62 64 68 71 76 80 82 83 90 95 100 107 107 106 111 113 114 114 114 114
16 17 16 15 15 17 18 18 18 20 23 25 28 31 34 36 39 41 44 47 49 51 55 57 59 63 66 68 70 73 77 81 85 90 98 103 114 114 113 115 120 119 123 123
16 15 15 14 13 13 13 15 18 21 23 26 28 31 34 37 39 42 45 49 51 53 56 58 60 63 65 67 68 71 74 77 81 84 88 94 100 107 119 118 118 121 124 127
13 13 13 12 12 14 16 17 19 21 24 27 30 32 36 39 41 44 47 50 53 56 58 60 62 65 66 68 69 70 71 74 77 81 84 89 95 98 100 103 112 117 118 119
12 10 11 13 14 14 15 16 19 21 23 26 29 33 37 41 44 47 50 53 56 58 60 62 64 65 67 68 69 71 73 74 75 76 77 81 85 90 94 98 101 103 106 109
14 12 12 12 10 11 12 15 18 21 24 28 32 37 41 45 49 52 55 56 58 61 62 64 65 66 66 67 67 68 69 70 70 71 73 74 76 78 81 85 89 92 96 100
10 9 8 8 9 10 14 18 20 24 29 35 39 43 46 50 53 56 59 61 62 64 65 65 65 64 63 64 65 65 65 64 64 64 64 65 68 71 73 74 76 80 83 88
10 9 7 7 10 13 17 23 27 31 35 39 43 47 51 54 56 58 60 62 63 64 65 64 64 63 62 61 60 59 58 56 56 56 56 58 59 62 64 67 71 74 76 78
8 5 5 8 13 18 22 27 30 34 39 44 50 54 57 59 61 62 64 65 66 66 65 63 62 61 60 59 58 57 56 55 54 53 53 53 54 55 57 59 61 64 67 70
5 5 9 13 19 23 27 32 38 43 46 50 54 56 57 58 60 62 63 64 63 62 61 60 59 59 59 58 57 54 53 52 52 51 50 50 51 52 54 54 55 56 58 60
Wind_Direction
235 224 188 184 190 191 192 193 191 181 183 182 185 192 192 197 208 207 200 197 207 208 205 217 222 225 232 234 238 244 245 253 259 260 264 273 254 248 236 231 237 241 244 221
215 199 184 183 184 192 192 192 193 190 188 192 192 197 195 198 199 206 204 205 213 211 213 221 224 229 231 235 241 247 254 256 260 266 272 267 254 240 224 228 239 236 236 218
209 196 186 184 184 191 194 198 197 197 196 195 199 203 200 207 209 208 210 218 216 217 220 225 228 231 235 240 247 253 255 257 264 269 271 266 242 228 219 228 235 235 232 221
201 196 186 190 189 193 195 201 203 204 201 199 201 206 204 205 208 210 213 212 214 221 223 226 231 235 238 242 248 249 254 261 265 265 267 248 234 217 218 228 233 231 227 216
199 196 195 192 195 196 197 200 203 207 207 206 206 207 213 212 216 220 224 215 216 219 222 227 232 236 239 241 246 254 258 259 266 259 248 240 221 213 217 225 230 228 226 217
202 202 204 202 205 209 206 204 206 212 212 212 211 215 216 217 218 223 227 230 228 227 231 237 239 243 245 249 251 251 258 255 253 257 240 235 214 212 216 222 224 225 223 223
208 207 210 210 210 211 215 214 212 211 214 216 218 220 223 225 224 224 225 229 234 238 239 242 245 248 250 251 252 248 248 250 253 249 234 233 214 213 216 224 222 223 223 219
222 211 212 213 215 215 221 221 220 217 214 216 219 222 224 228 232 234 235 236 238 241 243 243 242 244 245 246 250 247 252 253 245 240 233 228 214 216 219 224 227 226 225 226
216 219 213 211 217 224 224 225 226 225 224 224 223 224 224 226 229 232 234 238 241 238 238 236 246 247 248 247 250 252 254 247 242 240 231 224 215 219 221 225 228 230 229 228
219 221 222 221 226 230 232 236 238 238 235 234 231 230 232 232 232 234 237 241 238 241 244 243 249 251 250 253 256 253 243 238 234 224 211 218 222 223 225 226 230 232 235 236
231 231 229 228 227 225 225 227 230 233 236 237 237 238 237 238 239 242 243 243 243 247 250 245 248 253 255 254 250 244 239 235 233 222 204 221 228 224 227 229 231 233 235 237
227 229 232 233 234 231 228 229 231 234 236 238 239 242 240 241 243 245 247 247 245 244 243 248 254 254 249 244 242 246 241 236 222 217 220 215 221 226 228 233 234 235 237 239
219 220 225 233 237 235 233 235 236 240 239 238 239 241 242 243 244 245 246 248 246 244 245 249 251 250 244 238 238 241 237 229 219 221 224 226 221 222 226 233 235 236 237 240
207 215 222 229 235 239 241 246 246 244 244 243 242 241 242 243 245 246 247 248 249 249 249 248 248 249 243 240 237 239 231 224 221 222 223 226 225 225 228 231 235 239 242 243
216 220 227 235 237 243 246 246 242 239 241 244 244 243 245 246 247 249 250 251 252 252 253 251 250 248 248 244 239 236 234 226 227 229 229 231 231 228 231 233 236 235 238 240
219 225 225 224 226 227 232 235 235 237 241 244 246 246 247 249 250 251 252 254 256 256 256 256 255 253 250 249 247 241 237 231 229 231 231 231 232 231 232 234 236 237 238 239
208 214 219 222 230 230 231 235 239 245 249 253 254 254 253 253 253 254 255 257 258 258 257 256 255 254 253 251 251 248 242 240 237 238 235 233 234 233 233 235 238 240 240 240
211 218 224 227 232 234 238 242 245 248 250 252 254 256 255 254 253 253 255 258 259 260 260 260 259 258 256 254 252 250 248 245 243 242 241 237 237 237 236 237 238 239 241 241
216 222 228 229 231 232 235 241 247 250 251 252 254 256 259 262 265 267 268 268 268 269 269 267 265 264 263 262 259 257 255 252 249 246 244 244 243 242 242 241 240 242 243 243
213 214 215 220 227 235 240 243 247 252 258 263 267 269 271 271 271 271 271 272 272 272 272 272 272 270 269 268 266 263 262 260 258 255 253 251 249 248 247 247 248 248 247 247
203 209 216 222 232 243 252 260 267 272 275 275 276 277 277 278 278 278 278 278 278 277 277 276 275 275 275 273 272 270 267 265 263 260 258 257 257 256 255 253 254 254 254 255
206 213 220 230 242 253 263 269 272 274 276 280 283 286 287 288 288 288 287 287 286 285 284 283 282 281 279 278 277 275 274 272 269 267 264 262 260 259 259 260 260 259 259 259
205 214 229 241 250 262 269 277 283 289 292 294 294 293 292 292 292 291 290 290 290 289 288 288 287 286 286 284 282 279 277 275 274 272 271 269 268 265 263 262 261 261 262 262
210 222 233 240 259 274 290 296 298 300 299 299 301 302 301 298 296 295 294 294 293 293 293 293 292 291 288 285 283 282 281 280 279 276 273 271 269 268 268 266 263 261 260 259
204 212 234 271 293 300 302 305 306 308 308 307 306 305 304 303 302 301 300 300 300 299 298 298 296 294 292 291 290 288 286 285 282 280 277 274 271 269 268 266 266 265 265 265
205 239 280 297 299 303 306 304 305 309 311 315 316 314 311 308 306 305 304 304 304 303 302 300 298 297 296 295 293 292 290 288 286 283 281 278 276 273 271 269 268 266 265 265
231 275 291 300 305 305 310 315 317 317 316 315 313 310 307 306 305 304 304 304 304 303 302 300 299 298 298 297 296 294 292 289 288 286 284 282 280 279 278 276 273 271 269 268
Height
10254 10259 10265 10269 10272 10274 10281 10286 10291 10294 10302 10307 10315 10328 10341 10351 10357 10366 10378 10387 10397 10407 10416 10424 10432 10440 10445 10452 10455 10459 10463 10468 10470 10471 10472 10473 10472 10472 10477 10481 10484 10487 10490 10494
10246 10251 10256 10263 10271 10274 10276 10280 10284 10288 10295 10303 10312 10321 10332 10338 10350 10362 10374 10383 10391 10398 10407 10414 10422 10429 10434 10438 10443 10447 10451 10454 10455 10456 10458 10458 10457 10461 10469 10473 10476 10479 10482 10487
10239 10246 10253 10258 10263 10265 10271 10275 10280 10288 10296 10305 10311 10317 10329 10339 10350 10359 10367 10375 10384 10391 10398 10405 10410 10417 10422 10426 10431 10434 10436 10439 10441 10443 10443 10442 10444 10450 10458 10462 10465 10469 10473 10479
10238 10243 10248 10254 10260 10262 10267 10273 10280 10288 10294 10300 10306 10316 10325 10334 10342 10351 10360 10369 10376 10382 10388 10393 10399 10404 10409 10413 10417 10420 10423 10424 10427 10428 10429 10429 10433 10440 10448 10452 10456 10459 10463 10470
10234 10238 10243 10249 10256 10260 10265 10270 10274 10280 10290 10300 10309 10316 10323 10330 10336 10343 10350 10359 10364 10370 10375 10381 10387 10391 10395 10400 10404 10406 10409 10411 10412 10412 10415 10417 10423 10431 10437 10443 10446 10448 10452 10458
10231 10233 10238 10244 10249 10256 10259 10266 10273 10278 10286 10294 10301 10308 10314 10320 10327 10335 10343 10349 10355 10360 10365 10369 10374 10378 10383 10387 10390 10393 10395 10395 10398 10399 10402 10406 10412 10421 10427 10432 10435 10438 10441 10446
10227 10232 10236 10241 10246 10252 10257 10265 10271 10277 10284 10290 10295 10300 10306 10313 10320 10326 10332 10339 10344 10349 10353 10357 10361 10365 10368 10372 10375 10377 10379 10382 10384 10385 10390 10394 10401 10410 10415 10422 10424 10428 10432 10436
10223 10228 10234 10239 10244 10249 10252 10259 10265 10271 10276 10281 10287 10293 10299 10306 10311 10317 10323 10328 10333 10337 10341 10345 10349 10351 10354 10355 10359 10362 10364 10366 10368 10370 10377 10381 10390 10401 10404 10409 10413 10417 10421 10425
10221 10225 10229 10234 10239 10243 10248 10252 10257 10263 10268 10273 10279 10285 10290 10296 10302 10307 10312 10317 10322 10325 10329 10332 10336 10339 10341 10342 10343 10346 10349 10351 10354 10359 10363 10370 10378 10384 10389 10393 10398 10403 10407 10411
10217 10221 10225 10231 10235 10240 10244 10248 10251 10255 10259 10262 10268 10274 10279 10285 10291 10296 10301 10305 10310 10313 10317 10321 10323 10324 10326 10326 10328 10330 10334 10337 10340 10344 10352 10358 10366 10368 10374 10378 10384 10387 10391 10395
10212 10216 10220 10225 10229 10232 10234 10236 10239 10241 10245 10253 10259 10264 10269 10274 10279 10284 10289 10294 10297 10301 10304 10306 10309 10310 10312 10314 10316 10318 10320 10323 10326 10331 10335 10342 10347 10353 10357 10361 10364 10369 10373 10377
10209 10212 10214 10217 10220 10222 10224 10227 10228 10232 10239 10245 10249 10253 10258 10263 10267 10271 10276 10280 10284 10287 10290 10292 10294 10295 10298 10300 10303 10304 10307 10310 10312 10316 10321 10323 10328 10335 10339 10342 10345 10349 10354 10357
10201 10204 10206 10209 10211 10214 10217 10218 10222 10228 10233 10236 10239 10243 10246 10251 10255 10259 10263 10266 10270 10273 10276 10278 10279 10281 10283 10285 10288 10290 10293 10296 10299 10302 10305 10309 10312 10313 10317 10321 10324 10326 10330 10334
10193 10196 10199 10200 10203 10207 10210 10213 10217 10218 10222 10225 10229 10233 10236 10239 10243 10247 10249 10252 10256 10259 10261 10263 10265 10266 10268 10270 10272 10274 10277 10279 10282 10284 10287 10289 10292 10295 10297 10299 10302 10305 10308 10311
10188 10191 10193 10195 10200 10203 10206 10207 10209 10211 10214 10216 10220 10223 10226 10229 10231 10234 10236 10238 10240 10242 10244 10246 10248 10249 10251 10253 10255 10257 10258 10261 10262 10265 10267 10270 10271 10273 10275 10276 10278 10279 10282 10285
10183 10186 10189 10191 10193 10196 10197 10201 10203 10205 10207 10209 10211 10214 10216 10218 10220 10221 10223 10224 10226 10228 10229 10230 10230 10230 10232 10234 10235 10237 10238 10239 10240 10242 10243 10245 10247 10248 10251 10252 10252 10255 10257 10258
10178 10181 10183 10186 10189 10191 10193 10196 10198 10200 10202 10203 10205 10206 10207 10209 10210 10211 10211 10211 10210 10209 10208 10208 10207 10207 10207 10209 10210 10212 10214 10215 10216 10217 10217 10218 10221 10223 10223 10226 10228 10230 10230 10232
10174 10176 10179 10182 10184 10187 10189 10191 10192 10193 10195 10196 10197 10198 10198 10198 10197 10197 10195 10194 10194 10193 10190 10189 10187 10185 10184 10183 10183 10182 10184 10185 10187 10189 10190 10191 10192 10192 10194 10196 10198 10199 10200 10201
10170 10173 10176 10179 10181 10183 10184 10186 10187 10188 10189 10189 10189 10188 10188 10188 10188 10187 10185 10182 10181 10179 10174 10172 10170 10166 10164 10163 10162 10161 10160 10159 10158 10157 10159 10161 10163 10163 10162 10163 10165 10168 10170 10169
10169 10172 10174 10176 10177 10179 10180 10181 10181 10182 10183 10183 10182 10181 10179 10178 10176 10173 10170 10165 10163 10160 10156 10153 10149 10146 10142 10141 10139 10138 10136 10135 10135 10135 10136 10134 10132 10130 10131 10132 10134 10135 10137 10139
10166 10168 10170 10173 10174 10174 10176 10177 10177 10177 10176 10175 10173 10171 10168 10165 10162 10158 10155 10151 10146 10142 10137 10133 10129 10125 10121 10117 10113 10110 10109 10106 10105 10104 10104 10103 10102 10102 10103 10104 10104 10103 10104 10104
10162 10165 10167 10168 10169 10170 10171 10171 10170 10169 10167 10165 10163 10160 10156 10152 10148 10143 10138 10133 10127 10122 10116 10111 10106 10101 10096 10091 10087 10084 10080 10077 10074 10073 10072 10070 10070 10069 10068 10068 10069 10071 10073 10074
10160 10161 10162 10164 10164 10165 10165 10164 10163 10162 10160 10157 10154 10149 10144 10139 10133 10127 10121 10115 10108 10101 10096 10090 10084 10078 10072 10066 10061 10056 10052 10047 10046 10043 10042 10041 10039 10039 10038 10038 10038 10038 10039 10038
10156 10157 10159 10160 10160 10160 10159 10159 10157 10155 10151 10148 10143 10137 10131 10125 10118 10109 10102 10095 10087 10079 10071 10065 10059 10053 10048 10042 10036 10031 10026 10022 10019 10016 10014 10012 10010 10008 10007 10006 10007 10007 10007 10007
10153 10155 10155 10156 10155 10155 10153 10151 10149 10145 10141 10136 10130 10123 10115 10108 10100 10092 10083 10075 10067 10059 10051 10043 10036 10029 10022 10017 10012 10007 10002 9998 9994 9991 9989 9986 9984 9982 9980 9979 9978 9977 9977 9976
10150 10151 10151 10151 10151 10150 10148 10144 10141 10137 10131 10123 10114 10106 10098 10089 10080 10072 10063 10055 10046 10038 10029 10021 10013 10006 10000 9994 9990 9985 9980 9975 9972 9968 9966 9963 9960 9958 9956 9955 9953 9952 9951 9950
10145 10146 10147 10146 10145 10143 10139 10134 10128 10122 10117 10111 10104 10095 10086 10076 10067 10058 10049 10039 10029 10019 10010 10002 9995 9988 9980 9973 9968 9963 9959 9955 9951 9947 9945 9943 9940 9936 9933 9931 9930 9929 9928 9926